Tracking 22780 objects as of 11-Apr-2021
HD Live streaming from Space Station
objects crossing your sky now

OV1-14

Track OV1-14 now!
10-day predictions
OV1-14 is classified as:


NORAD ID: 3174
Int'l Code: 1968-026B
Perigee: 582.4 km
Apogee: 9,843.9 km
Inclination: 100.0 °
Period: 206.8 minutes
Semi major axis: 11584 km
RCS: 0.7366 m2 (medium)
Launch date: April 6, 1968
Source: United States (US)
Launch site: AIR FORCE WESTERN TEST RANGE (AFWTR)
aabbcc
Your satellite tracking list
Your tracking list is empty




NASA's NSSDC Master Catalog

Two Line Element Set (TLE):
1 03174U 68026B   21095.65366373 -.00000190  00000-0 -32113-3 0  9998
2 03174  99.9897 142.3539 3997486 268.0873 298.3513  6.96319255344126
Source of the keplerian elements: AFSPC